When you browse on this site, cookies collect data to enhance your experience and personalize the content and advertising you see.
Visit our Privacy Policy to learn more. By continuing to use the site, you agree to this use of cookies and data.
  • In Schweiz
  • Länderverzeichnis
  • Für 7 Tage
  • Wassertemperatur
  • Satellitenkarten
  • Wetterkarte
  • Widgets
  • user-avatar
    Anmelden

    Stündliche Wetter Platonove

    Heute, 23 Juli, Dienstag

    Zeit Temperatur Niederschläge Wind Luftdruck Luftfeuchtigkeit
    00:00 +20°C° 0 mm 3 m/S 749 mmHg 81%
    01:00 +20°C° 0 mm 3 m/S 749 mmHg 85%
    02:00 +19°C° 0 mm 3 m/S 749 mmHg 88%
    03:00 +19°C° 0 mm 3 m/S 748 mmHg 90%
    04:00 +18°C° 0 mm 2 m/S 748 mmHg 91%
    05:00 +18°C° 0 mm 2 m/S 748 mmHg 92%
    06:00 +19°C° 0 mm 3 m/S 748 mmHg 83%
    07:00 +21°C° 0 mm 3 m/S 748 mmHg 75%
    08:00 +22°C° 0 mm 3 m/S 748 mmHg 67%
    09:00 +23°C° 0 mm 4 m/S 748 mmHg 62%
    10:00 +25°C° 0 mm 4 m/S 748 mmHg 57%
    11:00 +26°C° 0 mm 4 m/S 748 mmHg 52%
    12:00 +26°C° 0 mm 4 m/S 748 mmHg 49%
    13:00 +27°C° 0 mm 4 m/S 747 mmHg 45%
    14:00 +28°C° 0 mm 4 m/S 747 mmHg 42%
    15:00 +26°C° 0.3 mm 4 m/S 747 mmHg 52%
    16:00 +23°C° 0.3 mm 5 m/S 747 mmHg 61%
    17:00 +21°C° 0.3 mm 6 m/S 747 mmHg 71%
    18:00 +20°C° 0.1 mm 5 m/S 747 mmHg 73%
    19:00 +19°C° 0.1 mm 4 m/S 746 mmHg 75%
    20:00 +19°C° 0.1 mm 2 m/S 746 mmHg 77%
    21:00 +18°C° 0 mm 2 m/S 746 mmHg 79%
    22:00 +18°C° 0 mm 3 m/S 747 mmHg 81%
    23:00 +17°C° 0 mm 3 m/S 747 mmHg 82%

    Morgen, 24 Juli, Mittwoch

    Zeit Temperatur Niederschläge Wind Luftdruck Luftfeuchtigkeit
    00:00 +16°C° 0 mm 3 m/S 747 mmHg 84%
    01:00 +16°C° 0 mm 3 m/S 746 mmHg 85%
    02:00 +14°C° 0 mm 3 m/S 746 mmHg 86%
    03:00 +14°C° 0 mm 3 m/S 746 mmHg 87%
    04:00 +14°C° 0 mm 3 m/S 746 mmHg 88%
    05:00 +14°C° 0 mm 3 m/S 746 mmHg 89%
    06:00 +17°C° 0 mm 4 m/S 746 mmHg 82%
    07:00 +19°C° 0 mm 4 m/S 746 mmHg 75%
    08:00 +21°C° 0 mm 5 m/S 746 mmHg 68%
    09:00 +22°C° 0 mm 5 m/S 746 mmHg 63%
    10:00 +24°C° 0 mm 6 m/S 746 mmHg 57%
    11:00 +26°C° 0 mm 6 m/S 746 mmHg 52%
    12:00 +27°C° 0.1 mm 6 m/S 746 mmHg 50%
    13:00 +27°C° 0.1 mm 6 m/S 746 mmHg 48%
    14:00 +28°C° 0.1 mm 6 m/S 746 mmHg 47%
    15:00 +28°C° 0 mm 6 m/S 746 mmHg 48%
    16:00 +27°C° 0 mm 6 m/S 746 mmHg 48%
    17:00 +27°C° 0 mm 6 m/S 746 mmHg 49%
    18:00 +26°C° 0 mm 5 m/S 746 mmHg 56%
    19:00 +23°C° 0 mm 4 m/S 746 mmHg 63%
    20:00 +21°C° 0 mm 3 m/S 746 mmHg 70%
    21:00 +20°C° 0 mm 3 m/S 746 mmHg 74%
    22:00 +20°C° 0 mm 3 m/S 746 mmHg 78%
    23:00 +19°C° 0 mm 3 m/S 747 mmHg 82%

    übermorgen, 25 Juli, Donnerstag

    Zeit Temperatur Niederschläge Wind Luftdruck Luftfeuchtigkeit
    00:00 +18°C° 0 mm 3 m/S 747 mmHg 84%
    01:00 +18°C° 0 mm 3 m/S 746 mmHg 87%
    02:00 +17°C° 0 mm 3 m/S 746 mmHg 90%
    03:00 +17°C° 0 mm 3 m/S 747 mmHg 90%
    04:00 +17°C° 0 mm 3 m/S 747 mmHg 91%
    05:00 +16°C° 0 mm 3 m/S 747 mmHg 91%
    06:00 +18°C° 0 mm 3 m/S 747 mmHg 82%
    07:00 +20°C° 0 mm 4 m/S 747 mmHg 73%
    08:00 +22°C° 0 mm 4 m/S 748 mmHg 63%
    09:00 +25°C° 0 mm 4 m/S 748 mmHg 57%
    10:00 +26°C° 0 mm 5 m/S 748 mmHg 50%
    11:00 +28°C° 0 mm 5 m/S 748 mmHg 44%
    12:00 +28°C° 0 mm 5 m/S 748 mmHg 42%
    13:00 +29°C° 0 mm 5 m/S 747 mmHg 41%
    14:00 +29°C° 0 mm 5 m/S 747 mmHg 40%
    15:00 +29°C° 0 mm 5 m/S 747 mmHg 41%
    16:00 +28°C° 0 mm 5 m/S 747 mmHg 42%
    17:00 +28°C° 0 mm 5 m/S 747 mmHg 43%
    18:00 +26°C° 0 mm 4 m/S 747 mmHg 50%
    19:00 +25°C° 0 mm 3 m/S 747 mmHg 56%
    20:00 +23°C° 0 mm 2 m/S 747 mmHg 63%
    21:00 +21°C° 0 mm 2 m/S 747 mmHg 66%
    22:00 +21°C° 0 mm 1 m/S 747 mmHg 68%
    23:00 +20°C° 0 mm 1 m/S 747 mmHg 71%

    26 Juli, Freitag

    Zeit Temperatur Niederschläge Wind Luftdruck Luftfeuchtigkeit
    00:00 +19°C° 0 mm 1 m/S 746 mmHg 72%
    01:00 +19°C° 0 mm 1 m/S 746 mmHg 73%
    02:00 +17°C° 0 mm 0 m/S 746 mmHg 74%
    03:00 +19°C° 0 mm 1 m/S 746 mmHg 74%
    04:00 +19°C° 0 mm 1 m/S 746 mmHg 74%
    05:00 +19°C° 0 mm 1 m/S 745 mmHg 74%
    06:00 +20°C° 0.1 mm 2 m/S 745 mmHg 69%
    07:00 +23°C° 0.1 mm 2 m/S 745 mmHg 64%
    08:00 +25°C° 0.1 mm 3 m/S 745 mmHg 58%
    09:00 +26°C° 0.8 mm 3 m/S 745 mmHg 56%
    10:00 +27°C° 0.8 mm 3 m/S 745 mmHg 54%
    11:00 +27°C° 0.8 mm 3 m/S 745 mmHg 52%
    12:00 +28°C° 0.2 mm 3 m/S 744 mmHg 49%
    13:00 +29°C° 0.2 mm 3 m/S 744 mmHg 46%
    14:00 +30°C° 0.2 mm 3 m/S 744 mmHg 42%
    15:00 +29°C° 0 mm 3 m/S 743 mmHg 42%
    16:00 +29°C° 0 mm 2 m/S 743 mmHg 42%
    17:00 +29°C° 0 mm 2 m/S 743 mmHg 43%
    18:00 +28°C° 0 mm 2 m/S 743 mmHg 49%
    19:00 +26°C° 0 mm 1 m/S 743 mmHg 55%
    20:00 +24°C° 0 mm 1 m/S 743 mmHg 61%
    21:00 +23°C° 0.2 mm 1 m/S 743 mmHg 67%
    22:00 +22°C° 0.2 mm 1 m/S 743 mmHg 73%
    23:00 +21°C° 0.2 mm 1 m/S 742 mmHg 78%

    27 Juli, Samstag

    Zeit Temperatur Niederschläge Wind Luftdruck Luftfeuchtigkeit
    00:00 +20°C° 0.7 mm 1 m/S 742 mmHg 81%
    01:00 +20°C° 0.7 mm 1 m/S 742 mmHg 83%
    02:00 +20°C° 0.7 mm 1 m/S 742 mmHg 85%
    03:00 +19°C° 0.3 mm 1 m/S 742 mmHg 86%
    04:00 +19°C° 0.3 mm 1 m/S 741 mmHg 88%
    05:00 +18°C° 0.3 mm 2 m/S 741 mmHg 89%
    06:00 +19°C° 0 mm 2 m/S 741 mmHg 82%
    07:00 +21°C° 0 mm 2 m/S 741 mmHg 76%
    08:00 +24°C° 0 mm 2 m/S 741 mmHg 69%
    09:00 +25°C° 0 mm 3 m/S 741 mmHg 63%
    10:00 +26°C° 0 mm 3 m/S 741 mmHg 56%
    11:00 +28°C° 0 mm 3 m/S 741 mmHg 50%
    12:00 +28°C° 0.2 mm 3 m/S 741 mmHg 50%
    13:00 +28°C° 0.2 mm 3 m/S 741 mmHg 50%
    14:00 +28°C° 0.2 mm 3 m/S 740 mmHg 50%
    15:00 +28°C° 0.1 mm 3 m/S 740 mmHg 50%
    16:00 +28°C° 0.1 mm 2 m/S 740 mmHg 50%
    17:00 +28°C° 0.1 mm 2 m/S 740 mmHg 50%
    18:00 +26°C° 0 mm 1 m/S 740 mmHg 54%
    19:00 +25°C° 0 mm 1 m/S 740 mmHg 57%
    20:00 +24°C° 0 mm 1 m/S 740 mmHg 60%
    21:00 +23°C° 0 mm 1 m/S 740 mmHg 62%
    22:00 +22°C° 0 mm 1 m/S 740 mmHg 64%
    23:00 +22°C° 0 mm 1 m/S 740 mmHg 65%

    28 Juli, Sonntag

    Zeit Temperatur Niederschläge Wind Luftdruck Luftfeuchtigkeit
    00:00 +21°C° 0 mm 1 m/S 740 mmHg 68%
    01:00 +20°C° 0 mm 1 m/S 740 mmHg 70%
    02:00 +20°C° 0 mm 1 m/S 740 mmHg 73%
    03:00 +19°C° 0 mm 1 m/S 740 mmHg 75%
    04:00 +19°C° 0 mm 1 m/S 740 mmHg 76%
    05:00 +19°C° 0 mm 1 m/S 740 mmHg 78%
    06:00 +21°C° 0 mm 1 m/S 740 mmHg 72%
    07:00 +22°C° 0 mm 1 m/S 740 mmHg 66%
    08:00 +24°C° 0 mm 2 m/S 740 mmHg 61%
    09:00 +26°C° 0 mm 1 m/S 740 mmHg 55%
    10:00 +27°C° 0 mm 1 m/S 740 mmHg 50%
    11:00 +29°C° 0 mm 1 m/S 740 mmHg 45%
    12:00 +29°C° 0 mm 1 m/S 740 mmHg 43%
    13:00 +30°C° 0 mm 2 m/S 740 mmHg 41%
    14:00 +30°C° 0 mm 2 m/S 739 mmHg 40%
    15:00 +30°C° 0 mm 2 m/S 739 mmHg 40%
    16:00 +30°C° 0 mm 2 m/S 739 mmHg 41%
    17:00 +30°C° 0 mm 2 m/S 739 mmHg 41%
    18:00 +28°C° 0 mm 2 m/S 739 mmHg 47%
    19:00 +27°C° 0 mm 2 m/S 739 mmHg 52%
    20:00 +25°C° 0 mm 3 m/S 739 mmHg 57%
    21:00 +24°C° 0 mm 2 m/S 739 mmHg 63%
    22:00 +23°C° 0 mm 2 m/S 739 mmHg 69%
    23:00 +21°C° 0 mm 2 m/S 739 mmHg 75%
    Mehr zeigen